Regional Weather Roundup
Issued by NWS Charleston, WV

Home | Current Version | Previous Version | Text Only | Print | Product List | Glossary Off
Versions: 1 2 3 4 5 6 7 8 9 10 11 12 13 14 15 16 17 18 19 20 21 22 23 24 25 26 27 28 29 30 31 32 33 34 35 36 37 38 39 40 41 42 43 44 45 46 47 48 49 50

000
ASUS41 KRLX 252010
RWRRLX
West Virginia Regional Weather Roundup
National Weather Service Charleston WV
400 PM EDT FRI JUL 25 2014

Note: "fair" indicates few or no clouds below 12,000 feet with no
significant weather and/or obstructions to visibility.

WVZ003-252100-
Northern Panhandle of West Virginia

CITY           SKY/WX    TMP DP  RH WIND       PRES   REMARKS
WHEELING       MOSUNNY   79  51  37 W8        30.04F
$$

WVZ009-252100-
Northwest West Virginia

CITY           SKY/WX    TMP DP  RH WIND       PRES   REMARKS
PARKERSBURG    NOT AVBL
$$

WVZ006-252100-
Western West Virginia

CITY           SKY/WX    TMP DP  RH WIND       PRES   REMARKS
HUNTINGTON     MOSUNNY   77  57  50 VRB3      30.04F
$$

WVZ015-252100-
West Central West Virginia

CITY           SKY/WX    TMP DP  RH WIND       PRES   REMARKS
CHARLESTON     MOSUNNY   78  57  48 NW6       30.04F
$$

WVZ031-252100-
North Central West Virginia

CITY           SKY/WX    TMP DP  RH WIND       PRES   REMARKS
CLARKSBURG     PTSUNNY   78  55  44 NW6       30.05F
MORGANTOWN     PTSUNNY   79  52  38 VRB3      30.06F
$$

WVZ035-042-045-252100-
South Central West Virginia

CITY           SKY/WX    TMP DP  RH WIND       PRES   REMARKS
BECKLEY        SUNNY     76  54  46 VRB5      30.10S
BLUEFIELD      MOSUNNY   77  61  57 W9        30.11F
LEWISBURG      SUNNY     81  49  32 SW5       30.07F
$$

WVZ047-252100-
Northern Mountains of West Virginia

CITY           SKY/WX    TMP DP  RH WIND       PRES   REMARKS
ELKINS         MOSUNNY   76  56  49 N10       30.08R
$$

WVZ052-252100-
Eastern Panhandle of West Virginia

CITY           SKY/WX    TMP DP  RH WIND       PRES   REMARKS
MARTINSBURG    SUNNY     81  51  35 CALM      30.01F
PETERSBURG     MOSUNNY   81  45  28 SE8       30.01R
$$


USA.gov is the U.S. government's official web portal to all federal, state and local government web resources and services.